Location: Oberwangen
(47.4286°N, 8.9679°E)
Time: 15:31:38
(UTC+00:00)

Cosmos 1603 - Pass Details

Date: 20 June 2021
Orbit: 832 x 858 km, 71.0° (Epoch: 02 August)

Event Time Altitude Azimuth Distance (km) Brightness Sun altitude
Exits shadow 23:45:55 30° 155° (SSE) 1,484 4.5 -19.0°
Maximum altitude 23:48:05 42° 108° (ESE) 1,188 4.3 -19.0°
Drops below altitude 10° 23:53:22 10° 39° (NE) 2,466 7.0 -18.9°
Sets 23:55:54 0° 33° (NNE) 3,401 8.0 -18.8°
